iso_date,epoch_date,Year,Hour,Min,DOY,POS_DOY,Lat,Lon,BP,Ts,Ta,has_bp,has_ts,has_ta,BuoyID,Buoy_Type,Buoy_Owner,Logistics,Hemisphere
2020-07-16T00:09:56Z,1594858196,2020,0,10,198.0069,198.0069,78.5451,1.30778,-999.00,-999.00,-999.0,no,no,no,300534060659360,NOMAD,AWI/USIABP,MOSAiC,North
2020-07-16T00:20:00Z,1594858801,2020,0,20,198.0139,198.0139,78.54378,1.31474,-999.00,-999.00,-999.0,no,no,no,300534060659360,NOMAD,AWI/USIABP,MOSAiC,North
2020-07-16T00:29:57Z,1594859397,2020,0,30,198.0208,198.0208,78.54244,1.32227,-999.00,-999.00,-999.0,no,no,no,300534060659360,NOMAD,AWI/USIABP,MOSAiC,North
2020-07-16T00:40:01Z,1594860002,2020,0,40,198.0278,198.0278,78.54093,1.32972,-999.00,-999.00,-999.0,no,no,no,300534060659360,NOMAD,AWI/USIABP,MOSAiC,North
2020-07-16T00:49:58Z,1594860598,2020,0,50,198.0347,198.0347,78.5393,1.33686,-999.00,-999.00,-999.0,no,no,no,300534060659360,NOMAD,AWI/USIABP,MOSAiC,North
2020-07-16T01:00:02Z,1594861203,2020,1,0,198.0417,198.0417,78.53775,1.34362,-999.00,-999.00,-999.0,no,no,no,300534060659360,NOMAD,AWI/USIABP,MOSAiC,North
2020-07-16T01:09:59Z,1594861799,2020,1,10,198.0486,198.0486,78.53634,1.35019,-999.00,-999.00,-999.0,no,no,no,300534060659360,NOMAD,AWI/USIABP,MOSAiC,North
2020-07-16T01:20:03Z,1594862404,2020,1,20,198.0556,198.0556,78.53484,1.35679,-999.00,-999.00,-999.0,no,no,no,300534060659360,NOMAD,AWI/USIABP,MOSAiC,North
2020-07-16T01:30:00Z,1594863000,2020,1,30,198.0625,198.0625,78.53332,1.36353,-999.00,-999.00,-999.0,no,no,no,300534060659360,NOMAD,AWI/USIABP,MOSAiC,North
2020-07-16T01:39:56Z,1594863596,2020,1,40,198.0694,198.0694,78.53188,1.37051,-999.00,-999.00,-999.0,no,no,no,300534060659360,NOMAD,AWI/USIABP,MOSAiC,North
2020-07-16T01:50:00Z,1594864201,2020,1,50,198.0764,198.0764,78.53043,1.37773,-999.00,-999.00,-999.0,no,no,no,300534060659360,NOMAD,AWI/USIABP,MOSAiC,North
2020-07-16T01:59:57Z,1594864797,2020,2,0,198.0833,198.0833,78.52894,1.38483,-999.00,-999.00,-999.0,no,no,no,300534060659360,NOMAD,AWI/USIABP,MOSAiC,North
2020-07-16T02:10:01Z,1594865402,2020,2,10,198.0903,198.0903,78.52745,1.39198,-999.00,-999.00,-999.0,no,no,no,300534060659360,NOMAD,AWI/USIABP,MOSAiC,North
2020-07-16T02:19:58Z,1594865998,2020,2,20,198.0972,198.0972,78.52579,1.39874,-999.00,-999.00,-999.0,no,no,no,300534060659360,NOMAD,AWI/USIABP,MOSAiC,North
2020-07-16T02:30:02Z,1594866603,2020,2,30,198.1042,198.1042,78.52398,1.40511,-999.00,-999.00,-999.0,no,no,no,300534060659360,NOMAD,AWI/USIABP,MOSAiC,North
2020-07-16T02:39:59Z,1594867199,2020,2,40,198.1111,198.1111,78.52213,1.41057,-999.00,-999.00,-999.0,no,no,no,300534060659360,NOMAD,AWI/USIABP,MOSAiC,North
2020-07-16T02:50:03Z,1594867804,2020,2,50,198.1181,198.1181,78.52047,1.41682,-999.00,-999.00,-999.0,no,no,no,300534060659360,NOMAD,AWI/USIABP,MOSAiC,North
2020-07-16T03:00:00Z,1594868400,2020,3,0,198.125,198.125,78.51907,1.42375,-999.00,-999.00,-999.0,no,no,no,300534060659360,NOMAD,AWI/USIABP,MOSAiC,North
2020-07-16T03:09:56Z,1594868996,2020,3,10,198.1319,198.1319,78.51743,1.43013,-999.00,-999.00,-999.0,no,no,no,300534060659360,NOMAD,AWI/USIABP,MOSAiC,North
2020-07-16T03:20:00Z,1594869601,2020,3,20,198.1389,198.1389,78.51579,1.43578,-999.00,-999.00,-999.0,no,no,no,300534060659360,NOMAD,AWI/USIABP,MOSAiC,North
2020-07-16T03:29:57Z,1594870197,2020,3,30,198.1458,198.1458,78.51428,1.44092,-999.00,-999.00,-999.0,no,no,no,300534060659360,NOMAD,AWI/USIABP,MOSAiC,North
2020-07-16T03:40:01Z,1594870802,2020,3,40,198.1528,198.1528,78.51286,1.44591,-999.00,-999.00,-999.0,no,no,no,300534060659360,NOMAD,AWI/USIABP,MOSAiC,North
2020-07-16T03:49:58Z,1594871398,2020,3,50,198.1597,198.1597,78.51138,1.45143,-999.00,-999.00,-999.0,no,no,no,300534060659360,NOMAD,AWI/USIABP,MOSAiC,North
2020-07-16T04:00:02Z,1594872003,2020,4,0,198.1667,198.1667,78.50995,1.4575,-999.00,-999.00,-999.0,no,no,no,300534060659360,NOMAD,AWI/USIABP,MOSAiC,North
2020-07-16T04:09:59Z,1594872599,2020,4,10,198.1736,198.1736,78.50864,1.46328,-999.00,-999.00,-999.0,no,no,no,300534060659360,NOMAD,AWI/USIABP,MOSAiC,North
2020-07-16T04:20:03Z,1594873204,2020,4,20,198.1806,198.1806,78.50744,1.46895,-999.00,-999.00,-999.0,no,no,no,300534060659360,NOMAD,AWI/USIABP,MOSAiC,North
2020-07-16T04:30:00Z,1594873800,2020,4,30,198.1875,198.1875,78.50632,1.47489,-999.00,-999.00,-999.0,no,no,no,300534060659360,NOMAD,AWI/USIABP,MOSAiC,North
2020-07-16T04:39:56Z,1594874396,2020,4,40,198.1944,198.1944,78.50525,1.48163,-999.00,-999.00,-999.0,no,no,no,300534060659360,NOMAD,AWI/USIABP,MOSAiC,North
2020-07-16T04:50:00Z,1594875001,2020,4,50,198.2014,198.2014,78.5042,1.48854,-999.00,-999.00,-999.0,no,no,no,300534060659360,NOMAD,AWI/USIABP,MOSAiC,North
2020-07-16T04:59:57Z,1594875597,2020,5,0,198.2083,198.2083,78.5031,1.49504,-999.00,-999.00,-999.0,no,no,no,300534060659360,NOMAD,AWI/USIABP,MOSAiC,North
2020-07-16T05:10:01Z,1594876202,2020,5,10,198.2153,198.2153,78.50214,1.50083,-999.00,-999.00,-999.0,no,no,no,300534060659360,NOMAD,AWI/USIABP,MOSAiC,North
2020-07-16T05:19:58Z,1594876798,2020,5,20,198.2222,198.2222,78.50113,1.50729,-999.00,-999.00,-999.0,no,no,no,300534060659360,NOMAD,AWI/USIABP,MOSAiC,North
2020-07-16T05:30:02Z,1594877403,2020,5,30,198.2292,198.2292,78.50017,1.51438,-999.00,-999.00,-999.0,no,no,no,300534060659360,NOMAD,AWI/USIABP,MOSAiC,North
2020-07-16T05:39:59Z,1594877999,2020,5,40,198.2361,198.2361,78.49906,1.52175,-999.00,-999.00,-999.0,no,no,no,300534060659360,NOMAD,AWI/USIABP,MOSAiC,North
2020-07-16T05:50:03Z,1594878604,2020,5,50,198.2431,198.2431,78.49801,1.52892,-999.00,-999.00,-999.0,no,no,no,300534060659360,NOMAD,AWI/USIABP,MOSAiC,North
2020-07-16T06:00:00Z,1594879200,2020,6,0,198.25,198.25,78.49696,1.53615,-999.00,-999.00,-999.0,no,no,no,300534060659360,NOMAD,AWI/USIABP,MOSAiC,North
2020-07-16T06:09:56Z,1594879796,2020,6,10,198.2569,198.2569,78.49582,1.54246,-999.00,-999.00,-999.0,no,no,no,300534060659360,NOMAD,AWI/USIABP,MOSAiC,North
2020-07-16T06:20:00Z,1594880401,2020,6,20,198.2639,198.2639,78.49452,1.54919,-999.00,-999.00,-999.0,no,no,no,300534060659360,NOMAD,AWI/USIABP,MOSAiC,North
2020-07-16T06:29:57Z,1594880997,2020,6,30,198.2708,198.2708,78.49329,1.55653,-999.00,-999.00,-999.0,no,no,no,300534060659360,NOMAD,AWI/USIABP,MOSAiC,North
2020-07-16T06:40:01Z,1594881602,2020,6,40,198.2778,198.2778,78.4921,1.56448,-999.00,-999.00,-999.0,no,no,no,300534060659360,NOMAD,AWI/USIABP,MOSAiC,North
2020-07-16T06:49:58Z,1594882198,2020,6,50,198.2847,198.2847,78.49083,1.57216,-999.00,-999.00,-999.0,no,no,no,300534060659360,NOMAD,AWI/USIABP,MOSAiC,North
2020-07-16T07:00:02Z,1594882803,2020,7,0,198.2917,198.2917,78.48959,1.58025,-999.00,-999.00,-999.0,no,no,no,300534060659360,NOMAD,AWI/USIABP,MOSAiC,North
2020-07-16T07:09:59Z,1594883399,2020,7,10,198.2986,198.2986,78.48834,1.58833,-999.00,-999.00,-999.0,no,no,no,300534060659360,NOMAD,AWI/USIABP,MOSAiC,North
2020-07-16T07:20:03Z,1594884004,2020,7,20,198.3056,198.3056,78.48688,1.59593,-999.00,-999.00,-999.0,no,no,no,300534060659360,NOMAD,AWI/USIABP,MOSAiC,North
2020-07-16T07:30:00Z,1594884600,2020,7,30,198.3125,198.3125,78.48537,1.60292,-999.00,-999.00,-999.0,no,no,no,300534060659360,NOMAD,AWI/USIABP,MOSAiC,North
2020-07-16T07:39:56Z,1594885196,2020,7,40,198.3194,198.3194,78.48393,1.61004,-999.00,-999.00,-999.0,no,no,no,300534060659360,NOMAD,AWI/USIABP,MOSAiC,North
2020-07-16T07:50:00Z,1594885801,2020,7,50,198.3264,198.3264,78.48241,1.61722,-999.00,-999.00,-999.0,no,no,no,300534060659360,NOMAD,AWI/USIABP,MOSAiC,North
2020-07-16T07:59:57Z,1594886397,2020,8,0,198.3333,198.3333,78.481,1.62448,-999.00,-999.00,-999.0,no,no,no,300534060659360,NOMAD,AWI/USIABP,MOSAiC,North
2020-07-16T08:10:01Z,1594887002,2020,8,10,198.3403,198.3403,78.4797,1.63166,-999.00,-999.00,-999.0,no,no,no,300534060659360,NOMAD,AWI/USIABP,MOSAiC,North
2020-07-16T08:19:58Z,1594887598,2020,8,20,198.3472,198.3472,78.47837,1.63892,-999.00,-999.00,-999.0,no,no,no,300534060659360,NOMAD,AWI/USIABP,MOSAiC,North
2020-07-16T08:30:02Z,1594888203,2020,8,30,198.3542,198.3542,78.47688,1.64572,-999.00,-999.00,-999.0,no,no,no,300534060659360,NOMAD,AWI/USIABP,MOSAiC,North
2020-07-16T08:39:59Z,1594888799,2020,8,40,198.3611,198.3611,78.47551,1.65266,-999.00,-999.00,-999.0,no,no,no,300534060659360,NOMAD,AWI/USIABP,MOSAiC,North
2020-07-16T08:50:03Z,1594889404,2020,8,50,198.3681,198.3681,78.47422,1.65983,-999.00,-999.00,-999.0,no,no,no,300534060659360,NOMAD,AWI/USIABP,MOSAiC,North
2020-07-16T09:00:00Z,1594890000,2020,9,0,198.375,198.375,78.47301,1.66662,-999.00,-999.00,-999.0,no,no,no,300534060659360,NOMAD,AWI/USIABP,MOSAiC,North
2020-07-16T09:09:56Z,1594890596,2020,9,10,198.3819,198.3819,78.47157,1.67362,-999.00,-999.00,-999.0,no,no,no,300534060659360,NOMAD,AWI/USIABP,MOSAiC,North
2020-07-16T09:20:00Z,1594891201,2020,9,20,198.3889,198.3889,78.47006,1.68036,-999.00,-999.00,-999.0,no,no,no,300534060659360,NOMAD,AWI/USIABP,MOSAiC,North
2020-07-16T09:29:57Z,1594891797,2020,9,30,198.3958,198.3958,78.46852,1.68735,-999.00,-999.00,-999.0,no,no,no,300534060659360,NOMAD,AWI/USIABP,MOSAiC,North
2020-07-16T09:40:01Z,1594892402,2020,9,40,198.4028,198.4028,78.46703,1.69456,-999.00,-999.00,-999.0,no,no,no,300534060659360,NOMAD,AWI/USIABP,MOSAiC,North
2020-07-16T09:49:58Z,1594892998,2020,9,50,198.4097,198.4097,78.46559,1.70221,-999.00,-999.00,-999.0,no,no,no,300534060659360,NOMAD,AWI/USIABP,MOSAiC,North
2020-07-16T10:00:02Z,1594893603,2020,10,0,198.4167,198.4167,78.46397,1.70879,-999.00,-999.00,-999.0,no,no,no,300534060659360,NOMAD,AWI/USIABP,MOSAiC,North
2020-07-16T10:09:59Z,1594894199,2020,10,10,198.4236,198.4236,78.46234,1.71464,-999.00,-999.00,-999.0,no,no,no,300534060659360,NOMAD,AWI/USIABP,MOSAiC,North
2020-07-16T10:20:03Z,1594894804,2020,10,20,198.4306,198.4306,78.46092,1.72125,-999.00,-999.00,-999.0,no,no,no,300534060659360,NOMAD,AWI/USIABP,MOSAiC,North
2020-07-16T10:30:00Z,1594895400,2020,10,30,198.4375,198.4375,78.45956,1.72824,-999.00,-999.00,-999.0,no,no,no,300534060659360,NOMAD,AWI/USIABP,MOSAiC,North
2020-07-16T10:39:56Z,1594895996,2020,10,40,198.4444,198.4444,78.45806,1.73445,-999.00,-999.00,-999.0,no,no,no,300534060659360,NOMAD,AWI/USIABP,MOSAiC,North
2020-07-16T10:50:00Z,1594896601,2020,10,50,198.4514,198.4514,78.45635,1.73984,-999.00,-999.00,-999.0,no,no,no,300534060659360,NOMAD,AWI/USIABP,MOSAiC,North
2020-07-16T10:59:57Z,1594897197,2020,11,0,198.4583,198.4583,78.45455,1.74472,-999.00,-999.00,-999.0,no,no,no,300534060659360,NOMAD,AWI/USIABP,MOSAiC,North
2020-07-16T11:10:01Z,1594897802,2020,11,10,198.4653,198.4653,78.45289,1.75015,-999.00,-999.00,-999.0,no,no,no,300534060659360,NOMAD,AWI/USIABP,MOSAiC,North
2020-07-16T11:19:58Z,1594898398,2020,11,20,198.4722,198.4722,78.45136,1.75526,-999.00,-999.00,-999.0,no,no,no,300534060659360,NOMAD,AWI/USIABP,MOSAiC,North
2020-07-16T11:30:02Z,1594899003,2020,11,30,198.4792,198.4792,78.4499,1.76028,-999.00,-999.00,-999.0,no,no,no,300534060659360,NOMAD,AWI/USIABP,MOSAiC,North
2020-07-16T11:39:59Z,1594899599,2020,11,40,198.4861,198.4861,78.44847,1.76614,-999.00,-999.00,-999.0,no,no,no,300534060659360,NOMAD,AWI/USIABP,MOSAiC,North
2020-07-16T11:50:03Z,1594900204,2020,11,50,198.4931,198.4931,78.44698,1.77055,-999.00,-999.00,-999.0,no,no,no,300534060659360,NOMAD,AWI/USIABP,MOSAiC,North
2020-07-16T12:00:00Z,1594900800,2020,12,0,198.5,198.5,78.44556,1.7752,-999.00,-999.00,-999.0,no,no,no,300534060659360,NOMAD,AWI/USIABP,MOSAiC,North
2020-07-16T12:09:56Z,1594901396,2020,12,10,198.5069,198.5069,78.4442,1.78044,-999.00,-999.00,-999.0,no,no,no,300534060659360,NOMAD,AWI/USIABP,MOSAiC,North
2020-07-16T12:20:00Z,1594902001,2020,12,20,198.5139,198.5139,78.44306,1.78548,-999.00,-999.00,-999.0,no,no,no,300534060659360,NOMAD,AWI/USIABP,MOSAiC,North
2020-07-16T12:29:57Z,1594902597,2020,12,30,198.5208,198.5208,78.44162,1.79014,-999.00,-999.00,-999.0,no,no,no,300534060659360,NOMAD,AWI/USIABP,MOSAiC,North
2020-07-16T12:40:01Z,1594903202,2020,12,40,198.5278,198.5278,78.44022,1.79537,-999.00,-999.00,-999.0,no,no,no,300534060659360,NOMAD,AWI/USIABP,MOSAiC,North
2020-07-16T12:49:58Z,1594903798,2020,12,50,198.5347,198.5347,78.43865,1.8009,-999.00,-999.00,-999.0,no,no,no,300534060659360,NOMAD,AWI/USIABP,MOSAiC,North
2020-07-16T13:00:02Z,1594904403,2020,13,0,198.5417,198.5417,78.43709,1.80517,-999.00,-999.00,-999.0,no,no,no,300534060659360,NOMAD,AWI/USIABP,MOSAiC,North
2020-07-16T13:09:59Z,1594904999,2020,13,10,198.5486,198.5486,78.43552,1.80877,-999.00,-999.00,-999.0,no,no,no,300534060659360,NOMAD,AWI/USIABP,MOSAiC,North
2020-07-16T13:20:03Z,1594905604,2020,13,20,198.5556,198.5556,78.43418,1.81324,-999.00,-999.00,-999.0,no,no,no,300534060659360,NOMAD,AWI/USIABP,MOSAiC,North
2020-07-16T13:30:00Z,1594906200,2020,13,30,198.5625,198.5625,78.43275,1.81645,-999.00,-999.00,-999.0,no,no,no,300534060659360,NOMAD,AWI/USIABP,MOSAiC,North
2020-07-16T13:39:56Z,1594906796,2020,13,40,198.5694,198.5694,78.43133,1.8196,-999.00,-999.00,-999.0,no,no,no,300534060659360,NOMAD,AWI/USIABP,MOSAiC,North
2020-07-16T13:50:00Z,1594907401,2020,13,50,198.5764,198.5764,78.42988,1.8237,-999.00,-999.00,-999.0,no,no,no,300534060659360,NOMAD,AWI/USIABP,MOSAiC,North
2020-07-16T13:59:57Z,1594907997,2020,14,0,198.5833,198.5833,78.42827,1.8265,-999.00,-999.00,-999.0,no,no,no,300534060659360,NOMAD,AWI/USIABP,MOSAiC,North
2020-07-16T14:10:01Z,1594908602,2020,14,10,198.5903,198.5903,78.42657,1.82877,-999.00,-999.00,-999.0,no,no,no,300534060659360,NOMAD,AWI/USIABP,MOSAiC,North
2020-07-16T14:19:58Z,1594909198,2020,14,20,198.5972,198.5972,78.42494,1.83077,-999.00,-999.00,-999.0,no,no,no,300534060659360,NOMAD,AWI/USIABP,MOSAiC,North
2020-07-16T14:30:02Z,1594909803,2020,14,30,198.6042,198.6042,78.42335,1.83267,-999.00,-999.00,-999.0,no,no,no,300534060659360,NOMAD,AWI/USIABP,MOSAiC,North
2020-07-16T14:39:59Z,1594910399,2020,14,40,198.6111,198.6111,78.4218,1.83422,-999.00,-999.00,-999.0,no,no,no,300534060659360,NOMAD,AWI/USIABP,MOSAiC,North
2020-07-16T14:50:03Z,1594911004,2020,14,50,198.6181,198.6181,78.42044,1.83644,-999.00,-999.00,-999.0,no,no,no,300534060659360,NOMAD,AWI/USIABP,MOSAiC,North
2020-07-16T15:00:00Z,1594911600,2020,15,0,198.625,198.625,78.4191,1.83869,-999.00,-999.00,-999.0,no,no,no,300534060659360,NOMAD,AWI/USIABP,MOSAiC,North
2020-07-16T15:09:56Z,1594912196,2020,15,10,198.6319,198.6319,78.41785,1.84108,-999.00,-999.00,-999.0,no,no,no,300534060659360,NOMAD,AWI/USIABP,MOSAiC,North
2020-07-16T15:20:00Z,1594912801,2020,15,20,198.6389,198.6389,78.41658,1.84358,-999.00,-999.00,-999.0,no,no,no,300534060659360,NOMAD,AWI/USIABP,MOSAiC,North
2020-07-16T15:29:57Z,1594913397,2020,15,30,198.6458,198.6458,78.41515,1.84612,-999.00,-999.00,-999.0,no,no,no,300534060659360,NOMAD,AWI/USIABP,MOSAiC,North
2020-07-16T15:40:01Z,1594914002,2020,15,40,198.6528,198.6528,78.41362,1.84834,-999.00,-999.00,-999.0,no,no,no,300534060659360,NOMAD,AWI/USIABP,MOSAiC,North
2020-07-16T15:49:58Z,1594914598,2020,15,50,198.6597,198.6597,78.41211,1.85063,-999.00,-999.00,-999.0,no,no,no,300534060659360,NOMAD,AWI/USIABP,MOSAiC,North
2020-07-16T16:00:02Z,1594915203,2020,16,0,198.6667,198.6667,78.41061,1.85276,-999.00,-999.00,-999.0,no,no,no,300534060659360,NOMAD,AWI/USIABP,MOSAiC,North
2020-07-16T16:09:59Z,1594915799,2020,16,10,198.6736,198.6736,78.40901,1.85483,-999.00,-999.00,-999.0,no,no,no,300534060659360,NOMAD,AWI/USIABP,MOSAiC,North
2020-07-16T16:20:03Z,1594916404,2020,16,20,198.6806,198.6806,78.40768,1.85766,-999.00,-999.00,-999.0,no,no,no,300534060659360,NOMAD,AWI/USIABP,MOSAiC,North
2020-07-16T16:30:00Z,1594917000,2020,16,30,198.6875,198.6875,78.40632,1.86138,-999.00,-999.00,-999.0,no,no,no,300534060659360,NOMAD,AWI/USIABP,MOSAiC,North
2020-07-16T16:39:56Z,1594917596,2020,16,40,198.6944,198.6944,78.40511,1.8655,-999.00,-999.00,-999.0,no,no,no,300534060659360,NOMAD,AWI/USIABP,MOSAiC,North
2020-07-16T16:50:00Z,1594918201,2020,16,50,198.7014,198.7014,78.40382,1.86943,-999.00,-999.00,-999.0,no,no,no,300534060659360,NOMAD,AWI/USIABP,MOSAiC,North
2020-07-16T16:59:57Z,1594918797,2020,17,0,198.7083,198.7083,78.40247,1.87362,-999.00,-999.00,-999.0,no,no,no,300534060659360,NOMAD,AWI/USIABP,MOSAiC,North
2020-07-16T17:10:01Z,1594919402,2020,17,10,198.7153,198.7153,78.40122,1.87791,-999.00,-999.00,-999.0,no,no,no,300534060659360,NOMAD,AWI/USIABP,MOSAiC,North
2020-07-16T17:19:58Z,1594919998,2020,17,20,198.7222,198.7222,78.40004,1.88202,-999.00,-999.00,-999.0,no,no,no,300534060659360,NOMAD,AWI/USIABP,MOSAiC,North
2020-07-16T17:30:02Z,1594920603,2020,17,30,198.7292,198.7292,78.39895,1.88554,-999.00,-999.00,-999.0,no,no,no,300534060659360,NOMAD,AWI/USIABP,MOSAiC,North
2020-07-16T17:39:59Z,1594921199,2020,17,40,198.7361,198.7361,78.39776,1.88835,-999.00,-999.00,-999.0,no,no,no,300534060659360,NOMAD,AWI/USIABP,MOSAiC,North
2020-07-16T17:50:03Z,1594921804,2020,17,50,198.7431,198.7431,78.39658,1.89004,-999.00,-999.00,-999.0,no,no,no,300534060659360,NOMAD,AWI/USIABP,MOSAiC,North
2020-07-16T18:00:00Z,1594922400,2020,18,0,198.75,198.75,78.39535,1.89104,-999.00,-999.00,-999.0,no,no,no,300534060659360,NOMAD,AWI/USIABP,MOSAiC,North
2020-07-16T18:09:56Z,1594922996,2020,18,10,198.7569,198.7569,78.39399,1.89226,-999.00,-999.00,-999.0,no,no,no,300534060659360,NOMAD,AWI/USIABP,MOSAiC,North
2020-07-16T18:20:00Z,1594923601,2020,18,20,198.7639,198.7639,78.39283,1.89375,-999.00,-999.00,-999.0,no,no,no,300534060659360,NOMAD,AWI/USIABP,MOSAiC,North
2020-07-16T18:29:57Z,1594924197,2020,18,30,198.7708,198.7708,78.39192,1.89602,-999.00,-999.00,-999.0,no,no,no,300534060659360,NOMAD,AWI/USIABP,MOSAiC,North
2020-07-16T18:40:01Z,1594924802,2020,18,40,198.7778,198.7778,78.39111,1.89809,-999.00,-999.00,-999.0,no,no,no,300534060659360,NOMAD,AWI/USIABP,MOSAiC,North
2020-07-16T18:49:58Z,1594925398,2020,18,50,198.7847,198.7847,78.39014,1.89954,-999.00,-999.00,-999.0,no,no,no,300534060659360,NOMAD,AWI/USIABP,MOSAiC,North
2020-07-16T19:00:02Z,1594926003,2020,19,0,198.7917,198.7917,78.38902,1.90075,-999.00,-999.00,-999.0,no,no,no,300534060659360,NOMAD,AWI/USIABP,MOSAiC,North
2020-07-16T19:09:59Z,1594926599,2020,19,10,198.7986,198.7986,78.38809,1.90176,-999.00,-999.00,-999.0,no,no,no,300534060659360,NOMAD,AWI/USIABP,MOSAiC,North
2020-07-16T19:20:03Z,1594927204,2020,19,20,198.8056,198.8056,78.38738,1.90344,-999.00,-999.00,-999.0,no,no,no,300534060659360,NOMAD,AWI/USIABP,MOSAiC,North
2020-07-16T19:30:00Z,1594927800,2020,19,30,198.8125,198.8125,78.38669,1.90496,-999.00,-999.00,-999.0,no,no,no,300534060659360,NOMAD,AWI/USIABP,MOSAiC,North
2020-07-16T19:39:56Z,1594928396,2020,19,40,198.8194,198.8194,78.38576,1.90654,-999.00,-999.00,-999.0,no,no,no,300534060659360,NOMAD,AWI/USIABP,MOSAiC,North
2020-07-16T19:50:00Z,1594929001,2020,19,50,198.8264,198.8264,78.38488,1.90808,-999.00,-999.00,-999.0,no,no,no,300534060659360,NOMAD,AWI/USIABP,MOSAiC,North
2020-07-16T19:59:57Z,1594929597,2020,20,0,198.8333,198.8333,78.38396,1.90984,-999.00,-999.00,-999.0,no,no,no,300534060659360,NOMAD,AWI/USIABP,MOSAiC,North
2020-07-16T20:10:01Z,1594930202,2020,20,10,198.8403,198.8403,78.38307,1.91125,-999.00,-999.00,-999.0,no,no,no,300534060659360,NOMAD,AWI/USIABP,MOSAiC,North
2020-07-16T20:19:58Z,1594930798,2020,20,20,198.8472,198.8472,78.38215,1.91272,-999.00,-999.00,-999.0,no,no,no,300534060659360,NOMAD,AWI/USIABP,MOSAiC,North
2020-07-16T20:30:02Z,1594931403,2020,20,30,198.8542,198.8542,78.38134,1.91385,-999.00,-999.00,-999.0,no,no,no,300534060659360,NOMAD,AWI/USIABP,MOSAiC,North
2020-07-16T20:39:59Z,1594931999,2020,20,40,198.8611,198.8611,78.38045,1.91519,-999.00,-999.00,-999.0,no,no,no,300534060659360,NOMAD,AWI/USIABP,MOSAiC,North
2020-07-16T20:50:03Z,1594932604,2020,20,50,198.8681,198.8681,78.37963,1.91677,-999.00,-999.00,-999.0,no,no,no,300534060659360,NOMAD,AWI/USIABP,MOSAiC,North
2020-07-16T21:00:00Z,1594933200,2020,21,0,198.875,198.875,78.37889,1.91899,-999.00,-999.00,-999.0,no,no,no,300534060659360,NOMAD,AWI/USIABP,MOSAiC,North
2020-07-16T21:09:56Z,1594933796,2020,21,10,198.8819,198.8819,78.37821,1.92114,-999.00,-999.00,-999.0,no,no,no,300534060659360,NOMAD,AWI/USIABP,MOSAiC,North
2020-07-16T21:20:00Z,1594934401,2020,21,20,198.8889,198.8889,78.37731,1.92228,-999.00,-999.00,-999.0,no,no,no,300534060659360,NOMAD,AWI/USIABP,MOSAiC,North
2020-07-16T21:29:57Z,1594934997,2020,21,30,198.8958,198.8958,78.37653,1.92242,-999.00,-999.00,-999.0,no,no,no,300534060659360,NOMAD,AWI/USIABP,MOSAiC,North
2020-07-16T21:40:01Z,1594935602,2020,21,40,198.9028,198.9028,78.37582,1.92269,-999.00,-999.00,-999.0,no,no,no,300534060659360,NOMAD,AWI/USIABP,MOSAiC,North
2020-07-16T21:49:58Z,1594936198,2020,21,50,198.9097,198.9097,78.37535,1.92305,-999.00,-999.00,-999.0,no,no,no,300534060659360,NOMAD,AWI/USIABP,MOSAiC,North
2020-07-16T22:00:02Z,1594936803,2020,22,0,198.9167,198.9167,78.37493,1.92313,-999.00,-999.00,-999.0,no,no,no,300534060659360,NOMAD,AWI/USIABP,MOSAiC,North
2020-07-16T22:09:59Z,1594937399,2020,22,10,198.9236,198.9236,78.3746,1.9234,-999.00,-999.00,-999.0,no,no,no,300534060659360,NOMAD,AWI/USIABP,MOSAiC,North
2020-07-16T22:20:03Z,1594938004,2020,22,20,198.9306,198.9306,78.37435,1.92344,-999.00,-999.00,-999.0,no,no,no,300534060659360,NOMAD,AWI/USIABP,MOSAiC,North
2020-07-16T22:30:00Z,1594938600,2020,22,30,198.9375,198.9375,78.3741,1.92342,-999.00,-999.00,-999.0,no,no,no,300534060659360,NOMAD,AWI/USIABP,MOSAiC,North
2020-07-16T22:39:56Z,1594939196,2020,22,40,198.9444,198.9444,78.37394,1.92369,-999.00,-999.00,-999.0,no,no,no,300534060659360,NOMAD,AWI/USIABP,MOSAiC,North
2020-07-16T22:50:00Z,1594939801,2020,22,50,198.9514,198.9514,78.37373,1.92444,-999.00,-999.00,-999.0,no,no,no,300534060659360,NOMAD,AWI/USIABP,MOSAiC,North
2020-07-16T22:59:57Z,1594940397,2020,23,0,198.9583,198.9583,78.37363,1.92597,-999.00,-999.00,-999.0,no,no,no,300534060659360,NOMAD,AWI/USIABP,MOSAiC,North
2020-07-16T23:10:01Z,1594941002,2020,23,10,198.9653,198.9653,78.3733,1.92789,-999.00,-999.00,-999.0,no,no,no,300534060659360,NOMAD,AWI/USIABP,MOSAiC,North
2020-07-16T23:19:58Z,1594941598,2020,23,20,198.9722,198.9722,78.37294,1.92977,-999.00,-999.00,-999.0,no,no,no,300534060659360,NOMAD,AWI/USIABP,MOSAiC,North
2020-07-16T23:30:02Z,1594942203,2020,23,30,198.9792,198.9792,78.37262,1.93126,-999.00,-999.00,-999.0,no,no,no,300534060659360,NOMAD,AWI/USIABP,MOSAiC,North
2020-07-16T23:39:59Z,1594942799,2020,23,40,198.9861,198.9861,78.37214,1.93256,-999.00,-999.00,-999.0,no,no,no,300534060659360,NOMAD,AWI/USIABP,MOSAiC,North
2020-07-16T23:50:03Z,1594943404,2020,23,50,198.9931,198.9931,78.37169,1.93403,-999.00,-999.00,-999.0,no,no,no,300534060659360,NOMAD,AWI/USIABP,MOSAiC,North
2020-07-17T00:00:00Z,1594944000,2020,0,0,199.0,199.0,78.37132,1.93579,-999.00,-999.00,-999.0,no,no,no,300534060659360,NOMAD,AWI/USIABP,MOSAiC,North
2020-07-17T00:09:56Z,1594944596,2020,0,10,199.0069,199.0069,78.37096,1.93811,-999.00,-999.00,-999.0,no,no,no,300534060659360,NOMAD,AWI/USIABP,MOSAiC,North
2020-07-17T00:20:00Z,1594945201,2020,0,20,199.0139,199.0139,78.3706,1.94085,-999.00,-999.00,-999.0,no,no,no,300534060659360,NOMAD,AWI/USIABP,MOSAiC,North
2020-07-17T00:29:57Z,1594945797,2020,0,30,199.0208,199.0208,78.37013,1.94365,-999.00,-999.00,-999.0,no,no,no,300534060659360,NOMAD,AWI/USIABP,MOSAiC,North
2020-07-17T00:40:01Z,1594946402,2020,0,40,199.0278,199.0278,78.36966,1.94578,-999.00,-999.00,-999.0,no,no,no,300534060659360,NOMAD,AWI/USIABP,MOSAiC,North
2020-07-17T00:49:58Z,1594946998,2020,0,50,199.0347,199.0347,78.3691,1.94805,-999.00,-999.00,-999.0,no,no,no,300534060659360,NOMAD,AWI/USIABP,MOSAiC,North
2020-07-17T01:00:02Z,1594947603,2020,1,0,199.0417,199.0417,78.36871,1.94986,-999.00,-999.00,-999.0,no,no,no,300534060659360,NOMAD,AWI/USIABP,MOSAiC,North
2020-07-17T01:09:59Z,1594948199,2020,1,10,199.0486,199.0486,78.36834,1.95171,-999.00,-999.00,-999.0,no,no,no,300534060659360,NOMAD,AWI/USIABP,MOSAiC,North
2020-07-17T01:20:03Z,1594948804,2020,1,20,199.0556,199.0556,78.36778,1.95311,-999.00,-999.00,-999.0,no,no,no,300534060659360,NOMAD,AWI/USIABP,MOSAiC,North
2020-07-17T01:30:00Z,1594949400,2020,1,30,199.0625,199.0625,78.36733,1.95475,-999.00,-999.00,-999.0,no,no,no,300534060659360,NOMAD,AWI/USIABP,MOSAiC,North